| time (UTC) | temp F | wind direction | speed MPH | gust MPH | rain 1hr in | rain 24hr in | rain mn in | humidity % | barometer mb |
| 20260508220503 | 74 | 50 | 1.0 | 5.0 | 0.00 | 0.01 | 0.01 | 33 | 1013.6 |
| 20260508220023 | 73 | 310 | 1.0 | 5.0 | 0.00 | 0.01 | 0.01 | 34 | 1013.7 |
| 20260508215509 | 73 | 44 | 2.0 | 7.0 | 0.00 | 0.01 | 0.01 | 33 | 1013.7 |
| 20260508215010 | 73 | 343 | 1.0 | 7.0 | 0.00 | 0.01 | 0.01 | 33 | 1013.8 |
| 20260508214518 | 74 | 63 | 2.0 | 7.0 | 0.00 | 0.01 | 0.01 | 34 | 1013.7 |
| 20260508214007 | 74 | 283 | 2.0 | 5.0 | 0.00 | 0.01 | 0.01 | 32 | 1013.7 |
| 20260508213507 | 74 | 98 | 1.0 | 5.0 | 0.00 | 0.01 | 0.01 | 32 | 1013.7 |
| 20260508213028 | 74 | 77 | 3.0 | 5.0 | 0.00 | 0.01 | 0.01 | 34 | 1013.7 |
| 20260508212508 | 74 | 23 | 1.0 | 5.0 | 0.00 | 0.01 | 0.01 | 33 | 1013.8 |
| 20260508212012 | 74 | 41 | 1.0 | 4.0 | 0.00 | 0.01 | 0.01 | 33 | 1013.8 |
| 20260508211532 | 73 | 282 | 1.0 | 4.0 | 0.00 | 0.01 | 0.01 | 35 | 1013.8 |
| 20260508211012 | 74 | 200 | 1.0 | 7.0 | 0.00 | 0.01 | 0.01 | 37 | 1013.9 |
| 20260508210508 | 74 | 150 | 2.0 | 7.0 | 0.00 | 0.01 | 0.01 | 38 | 1013.9 |
| 20260508210010 | 74 | 275 | 1.0 | 7.0 | 0.00 | 0.01 | 0.01 | 36 | 1014.1 |
| 20260508205507 | 74 | 275 | 2.0 | 7.0 | 0.00 | 0.01 | 0.01 | 36 | 1014.2 |
| 20260508205008 | 73 | 56 | 0.0 | 7.0 | 0.00 | 0.01 | 0.01 | 36 | 1014.2 |
| 20260508204515 | 73 | 44 | 2.0 | 10.0 | 0.00 | 0.01 | 0.01 | 35 | 1014.2 |
| 20260508204008 | 74 | 60 | 3.0 | 10.0 | 0.00 | 0.01 | 0.01 | 36 | 1014.2 |
| 20260508203506 | 74 | 35 | 1.0 | 5.0 | 0.00 | 0.01 | 0.01 | 34 | 1014.1 |
| 20260508203018 | 74 | 233 | 1.0 | 5.0 | 0.00 | 0.01 | 0.01 | 37 | 1014.1 |
| 20260508202509 | 74 | 50 | 0.0 | 7.0 | 0.00 | 0.01 | 0.01 | 35 | 1014.1 |
| 20260508202008 | 74 | 67 | 2.0 | 7.0 | 0.00 | 0.01 | 0.01 | 40 | 1014.3 |
| 20260508201522 | 74 | 81 | 3.0 | 7.0 | 0.00 | 0.01 | 0.01 | 37 | 1014.3 |
| 20260508201013 | 73 | 33 | 0.0 | 7.0 | 0.00 | 0.01 | 0.01 | 38 | 1014.4 |
| 20260508200507 | 72 | 298 | 1.0 | 8.0 | 0.00 | 0.01 | 0.01 | 41 | 1014.5 |
| 20260508200031 | 72 | 291 | 1.0 | 10.0 | 0.00 | 0.01 | 0.01 | 38 | 1014.5 |
| 20260508195511 | 72 | 29 | 4.0 | 10.0 | 0.00 | 0.01 | 0.01 | 37 | 1014.5 |
| 20260508195009 | 72 | 108 | 3.0 | 10.0 | 0.00 | 0.01 | 0.01 | 39 | 1014.6 |
| 20260508194513 | 72 | 36 | 1.0 | 8.0 | 0.00 | 0.01 | 0.01 | 38 | 1014.8 |
| 20260508194005 | 72 | 65 | 1.0 | 6.0 | 0.00 | 0.01 | 0.01 | 38 | 1014.9 |
| 20260508193507 | 72 | 203 | 2.0 | 7.0 | 0.00 | 0.01 | 0.01 | 38 | 1015.0 |
| 20260508193016 | 73 | 202 | 2.0 | 7.0 | 0.00 | 0.01 | 0.01 | 40 | 1015.3 |
| 20260508192509 | 72 | 231 | 1.0 | 5.0 | 0.00 | 0.01 | 0.01 | 40 | 1015.3 |
| 20260508192010 | 72 | 24 | 0.0 | 8.0 | 0.00 | 0.01 | 0.01 | 41 | 1015.3 |
| 20260508191526 | 72 | 54 | 1.0 | 9.0 | 0.00 | 0.01 | 0.01 | 38 | 1015.4 |
| 20260508191011 | 72 | 63 | 3.0 | 9.0 | 0.00 | 0.01 | 0.01 | 39 | 1015.4 |
| 20260508190508 | 70 | 35 | 0.0 | 8.0 | 0.00 | 0.01 | 0.01 | 42 | 1015.5 |
| 20260508190033 | 70 | 289 | 4.0 | 8.0 | 0.00 | 0.01 | 0.01 | 41 | 1015.4 |
| 20260508185511 | 70 | 279 | 2.0 | 5.0 | 0.00 | 0.01 | 0.01 | 41 | 1015.4 |
| 20260508185010 | 71 | 166 | 2.0 | 5.0 | 0.00 | 0.01 | 0.01 | 41 | 1015.6 |
| 20260508184527 | 71 | 48 | 0.0 | 4.0 | 0.00 | 0.01 | 0.01 | 42 | 1015.6 |
| 20260508184012 | 70 | 132 | 0.0 | 6.0 | 0.00 | 0.01 | 0.01 | 41 | 1015.6 |
| 20260508183504 | 70 | 281 | 1.0 | 6.0 | 0.00 | 0.01 | 0.01 | 42 | 1015.7 |
| 20260508183015 | 70 | 322 | 3.0 | 5.0 | 0.00 | 0.01 | 0.01 | 39 | 1015.8 |
| 20260508182509 | 69 | 68 | 2.0 | 4.0 | 0.00 | 0.01 | 0.01 | 40 | 1015.8 |
| 20260508182008 | 69 | 17 | 0.0 | 5.0 | 0.00 | 0.01 | 0.01 | 39 | 1016.0 |
| 20260508181540 | 68 | 316 | 0.0 | 5.0 | 0.00 | 0.01 | 0.01 | 41 | 1016.0 |
| 20260508181011 | 68 | 275 | 1.0 | 5.0 | 0.00 | 0.01 | 0.01 | 40 | 1016.1 |
| 20260508180507 | 68 | 88 | 2.0 | 5.0 | 0.00 | 0.01 | 0.01 | 42 | 1016.2 |
| 20260508180022 | 68 | 161 | 0.0 | 4.0 | 0.00 | 0.01 | 0.01 | 46 | 1016.3 |
| 20260508175510 | 68 | 2 | 1.0 | 4.0 | 0.00 | 0.01 | 0.01 | 43 | 1016.3 |
| 20260508175009 | 67 | 69 | 0.0 | 6.0 | 0.00 | 0.01 | 0.01 | 45 | 1016.4 |
| 20260508174529 | 67 | 356 | 1.0 | 7.0 | 0.00 | 0.01 | 0.01 | 43 | 1016.4 |
| 20260508174009 | 67 | 56 | 2.0 | 7.0 | 0.00 | 0.01 | 0.01 | 46 | 1016.5 |
| 20260508173512 | 67 | 306 | 1.0 | 5.0 | 0.00 | 0.01 | 0.01 | 46 | 1016.6 |
| 20260508173025 | 67 | 211 | 1.0 | 5.0 | 0.00 | 0.01 | 0.01 | 47 | 1016.6 |
| 20260508172510 | 67 | 75 | 0.0 | 4.0 | 0.00 | 0.01 | 0.01 | 46 | 1016.7 |
| 20260508172009 | 66 | 63 | 0.0 | 7.0 | 0.00 | 0.01 | 0.01 | 48 | 1016.7 |
| 20260508171517 | 65 | 354 | 1.0 | 7.0 | 0.00 | 0.01 | 0.01 | 46 | 1016.7 |
| 20260508171012 | 65 | 332 | 0.0 | 5.0 | 0.00 | 0.01 | 0.01 | 46 | 1016.8 |
| 20260508170511 | 64 | 247 | 1.0 | 4.0 | 0.00 | 0.01 | 0.01 | 47 | 1017.0 |
| 20260508170024 | 63 | 71 | 1.0 | 4.0 | 0.00 | 0.01 | 0.01 | 47 | 1017.0 |
| 20260508165510 | 64 | 59 | 0.0 | 3.0 | 0.00 | 0.01 | 0.01 | 49 | 1017.1 |
| 20260508165014 | 63 | 282 | 0.0 | 3.0 | 0.00 | 0.01 | 0.01 | 51 | 1017.1 |
| 20260508164535 | 63 | 279 | 1.0 | 3.0 | 0.00 | 0.01 | 0.01 | 48 | 1017.1 |
| 20260508164011 | 63 | 287 | 0.0 | 3.0 | 0.00 | 0.01 | 0.01 | 49 | 1017.2 |
| 20260508163508 | 63 | 282 | 0.0 | 3.0 | 0.00 | 0.01 | 0.01 | 51 | 1017.2 |
| 20260508163024 | 61 | 280 | 0.0 | 4.0 | 0.00 | 0.01 | 0.01 | 53 | 1017.2 |
| 20260508162509 | 61 | 279 | 0.0 | 4.0 | 0.00 | 0.01 | 0.01 | 52 | 1017.3 |
| 20260508162011 | 61 | 283 | 1.0 | 4.0 | 0.00 | 0.01 | 0.01 | 50 | 1017.3 |
| 20260508161528 | 61 | 282 | 0.0 | 4.0 | 0.00 | 0.01 | 0.01 | 50 | 1017.3 |
| 20260508161010 | 61 | 281 | 1.0 | 5.0 | 0.00 | 0.01 | 0.01 | 54 | 1017.3 |
| 20260508160507 | 60 | 281 | 1.0 | 5.0 | 0.00 | 0.01 | 0.01 | 56 | 1017.3 |
| 20260508160033 | 60 | 283 | 1.0 | 4.0 | 0.00 | 0.01 | 0.01 | 56 | 1017.3 |
| 20260508155509 | 60 | 282 | 1.0 | 4.0 | 0.00 | 0.01 | 0.01 | 56 | 1017.3 |
| 20260508155010 | 60 | 279 | 0.0 | 4.0 | 0.00 | 0.01 | 0.01 | 59 | 1017.3 |
| 20260508154522 | 60 | 281 | 1.0 | 4.0 | 0.00 | 0.01 | 0.01 | 61 | 1017.2 |
| 20260508154018 | 60 | 281 | 2.0 | 7.0 | 0.00 | 0.01 | 0.01 | 62 | 1017.2 |
| 20260508153509 | 59 | 281 | 1.0 | 7.0 | 0.00 | 0.01 | 0.01 | 63 | 1017.2 |
| 20260508153026 | 58 | 282 | 1.0 | 4.0 | 0.00 | 0.01 | 0.01 | 67 | 1017.2 |
| 20260508152511 | 57 | 281 | 1.0 | 4.0 | 0.00 | 0.01 | 0.01 | 67 | 1017.2 |
| 20260508152012 | 56 | 282 | 0.0 | 5.0 | 0.00 | 0.01 | 0.01 | 69 | 1017.2 |
| 20260508151526 | 55 | 282 | 1.0 | 5.0 | 0.00 | 0.01 | 0.01 | 72 | 1017.2 |
| 20260508151015 | 54 | 282 | 0.0 | 0.0 | 0.00 | 0.01 | 0.01 | 72 | 1017.2 |
| 20260508150516 | 53 | 282 | 0.0 | 0.0 | 0.00 | 0.01 | 0.01 | 73 | 1017.0 |
| 20260508150025 | 53 | 270 | 0.0 | 2.0 | 0.00 | 0.01 | 0.01 | 73 | 1016.8 |
| 20260508145510 | 53 | 270 | 0.0 | 2.0 | 0.00 | 0.01 | 0.01 | 74 | 1017.0 |
| 20260508145011 | 52 | 270 | 0.0 | 2.0 | 0.00 | 0.01 | 0.01 | 74 | 1017.0 |
| 20260508144522 | 52 | 270 | 0.0 | 3.0 | 0.00 | 0.01 | 0.01 | 76 | 1017.1 |
| 20260508144010 | 52 | 270 | 0.0 | 5.0 | 0.00 | 0.01 | 0.01 | 77 | 1017.0 |
| 20260508143511 | 52 | 270 | 2.0 | 5.0 | 0.00 | 0.01 | 0.01 | 77 | 1017.0 |
| 20260508143031 | 52 | 283 | 1.0 | 3.0 | 0.00 | 0.01 | 0.01 | 77 | 1017.0 |
| 20260508142510 | 51 | 270 | 0.0 | 3.0 | 0.00 | 0.01 | 0.01 | 78 | 1016.8 |
| 20260508142013 | 51 | 270 | 0.0 | 3.0 | 0.00 | 0.01 | 0.01 | 77 | 1016.8 |
| 20260508141543 | 50 | 270 | 0.0 | 3.0 | 0.00 | 0.01 | 0.01 | 80 | 1016.8 |
| 20260508141008 | 50 | 270 | 1.0 | 3.0 | 0.00 | 0.01 | 0.01 | 80 | 1016.8 |
| 20260508140509 | 49 | 270 | 1.0 | 3.0 | 0.00 | 0.01 | 0.01 | 80 | 1016.6 |
| 20260508140027 | 49 | 270 | 0.0 | 3.0 | 0.00 | 0.01 | 0.01 | 80 | 1016.8 |
| 20260508135512 | 49 | 270 | 0.0 | 3.0 | 0.00 | 0.01 | 0.01 | 79 | 1016.8 |
| 20260508135013 | 49 | 270 | 0.0 | 1.0 | 0.00 | 0.01 | 0.01 | 79 | 1016.8 |
| 20260508134525 | 48 | 270 | 0.0 | 1.0 | 0.00 | 0.01 | 0.01 | 79 | 1016.9 |
| 20260508134011 | 48 | 270 | 0.0 | 1.0 | 0.00 | 0.01 | 0.01 | 79 | 1017.0 |
| 20260508133508 | 48 | 285 | 0.0 | 4.0 | 0.00 | 0.01 | 0.01 | 79 | 1016.9 |
| 20260508133023 | 48 | 270 | 0.0 | 4.0 | 0.00 | 0.01 | 0.01 | 79 | 1016.8 |
| 20260508132510 | 48 | 270 | 0.0 | 2.0 | 0.00 | 0.01 | 0.01 | 79 | 1016.8 |
| 20260508132013 | 48 | 279 | 0.0 | 2.0 | 0.00 | 0.01 | 0.01 | 79 | 1016.7 |
| 20260508131525 | 48 | 279 | 0.0 | 2.0 | 0.00 | 0.01 | 0.01 | 80 | 1016.6 |
| 20260508131012 | 47 | 270 | 0.0 | 1.0 | 0.00 | 0.01 | 0.01 | 80 | 1016.5 |
| 20260508130511 | 47 | 270 | 0.0 | 1.0 | 0.00 | 0.01 | 0.01 | 80 | 1016.5 |
| 20260508130028 | 48 | 280 | 0.0 | 1.0 | 0.00 | 0.01 | 0.01 | 81 | 1016.5 |
| 20260508125511 | 47 | 279 | 0.0 | 1.0 | 0.00 | 0.01 | 0.01 | 79 | 1016.5 |
| 20260508125012 | 47 | 279 | 0.0 | 2.0 | 0.01 | 0.01 | 0.01 | 79 | 1016.4 |
| 20260508124527 | 47 | 279 | 0.0 | 4.0 | 0.01 | 0.01 | 0.01 | 78 | 1016.3 |
| 20260508124011 | 47 | 275 | 0.0 | 4.0 | 0.01 | 0.01 | 0.01 | 77 | 1016.3 |
| 20260508123511 | 47 | 275 | 0.0 | 5.0 | 0.01 | 0.01 | 0.01 | 78 | 1016.6 |
| 20260508123028 | 47 | 279 | 1.0 | 7.0 | 0.01 | 0.01 | 0.01 | 79 | 1016.7 |
| 20260508122509 | 47 | 287 | 1.0 | 7.0 | 0.01 | 0.01 | 0.01 | 79 | 1016.8 |
| 20260508122014 | 47 | 287 | 0.0 | 7.0 | 0.01 | 0.01 | 0.01 | 79 | 1016.8 |
| 20260508121524 | 47 | 281 | 2.0 | 8.0 | 0.01 | 0.01 | 0.01 | 79 | 1016.9 |
| 20260508121008 | 47 | 280 | 2.0 | 10.0 | 0.01 | 0.01 | 0.01 | 79 | 1017.2 |
| 20260508120514 | 47 | 281 | 2.0 | 12.0 | 0.01 | 0.01 | 0.01 | 79 | 1017.0 |
| 20260508120035 | 47 | 288 | 4.0 | 12.0 | 0.01 | 0.01 | 0.01 | 80 | 1017.3 |
| 20260508115515 | 47 | 280 | 3.0 | 13.0 | 0.01 | 0.01 | 0.01 | 81 | 1017.5 |
| 20260508115009 | 47 | 287 | 3.0 | 13.0 | 0.00 | 0.00 | 0.00 | 83 | 1017.5 |
| 20260508114008 | 46 | 279 | 2.0 | 5.0 | 0.00 | 0.00 | 0.00 | 85 | 1017.5 |
| 20260508113508 | 46 | 287 | 1.0 | 3.0 | 0.00 | 0.00 | 0.00 | 85 | 1017.3 |
| 20260508113016 | 46 | 279 | 0.0 | 4.0 | 0.00 | 0.00 | 0.00 | 84 | 1017.1 |
| 20260508112508 | 45 | 279 | 0.0 | 4.0 | 0.00 | 0.00 | 0.00 | 85 | 1017.0 |
| 20260508112009 | 45 | 279 | 2.0 | 7.0 | 0.00 | 0.00 | 0.00 | 85 | 1016.7 |
| 20260508111523 | 45 | 279 | 3.0 | 7.0 | 0.00 | 0.00 | 0.00 | 86 | 1016.7 |
| 20260508111012 | 44 | 275 | 1.0 | 3.0 | 0.00 | 0.00 | 0.00 | 87 | 1016.6 |
| 20260508110512 | 44 | 280 | 0.0 | 1.0 | 0.00 | 0.00 | 0.00 | 87 | 1016.2 |
| 20260508110024 | 45 | 280 | 0.0 | 2.0 | 0.00 | 0.00 | 0.00 | 86 | 1016.3 |
| 20260508105505 | 45 | 280 | 0.0 | 2.0 | 0.00 | 0.00 | 0.00 | 86 | 1016.4 |
| 20260508105005 | 45 | 281 | 0.0 | 2.0 | 0.00 | 0.00 | 0.00 | 85 | 1016.4 |
| 20260508104508 | 45 | 281 | 0.0 | 1.0 | 0.00 | 0.00 | 0.00 | 85 | 1016.2 |
| 20260508104006 | 45 | 270 | 0.0 | 1.0 | 0.00 | 0.00 | 0.00 | 84 | 1016.0 |
| 20260508103505 | 45 | 287 | 0.0 | 1.0 | 0.00 | 0.00 | 0.00 | 84 | 1016.0 |
| 20260508103026 | 46 | 270 | 0.0 | 0.0 | 0.00 | 0.00 | 0.00 | 83 | 1016.1 |
| 20260508101533 | 46 | 270 | 0.0 | 0.0 | 0.00 | 0.00 | 0.00 | 83 | 1016.0 |
| 20260508100028 | 47 | 270 | 0.0 | 2.0 | 0.00 | 0.00 | 0.00 | 84 | 1016.1 |
| 20260508095510 | 47 | 270 | 0.0 | 2.0 | 0.00 | 0.00 | 0.00 | 84 | 1016.1 |
| 20260508095013 | 47 | 270 | 0.0 | 2.0 | 0.00 | 0.00 | 0.00 | 84 | 1016.1 |
| 20260508094525 | 47 | 270 | 0.0 | 2.0 | 0.00 | 0.00 | 0.00 | 84 | 1016.0 |
| 20260508094004 | 47 | 270 | 0.0 | 2.0 | 0.00 | 0.00 | 0.00 | 84 | 1016.0 |
| 20260508093507 | 47 | 270 | 0.0 | 2.0 | 0.00 | 0.00 | 0.00 | 85 | 1016.3 |
| 20260508093013 | 46 | 270 | 0.0 | 2.0 | 0.00 | 0.00 | 0.00 | 84 | 1016.2 |
| 20260508092508 | 46 | 270 | 0.0 | 3.0 | 0.00 | 0.00 | 0.00 | 84 | 1015.8 |
| 20260508091516 | 46 | 270 | 0.0 | 3.0 | 0.00 | 0.00 | 0.00 | 83 | 1015.6 |
| 20260508091008 | 46 | 270 | 0.0 | 0.0 | 0.00 | 0.00 | 0.00 | 82 | 1015.4 |
| 20260508090508 | 47 | 270 | 0.0 | 0.0 | 0.00 | 0.00 | 0.00 | 81 | 1015.3 |
| 20260508090021 | 47 | 270 | 0.0 | 0.0 | 0.00 | 0.00 | 0.00 | 81 | 1015.1 |
| 20260508085508 | 47 | 270 | 0.0 | 0.0 | 0.00 | 0.00 | 0.00 | 81 | 1015.1 |
| 20260508085008 | 47 | 270 | 0.0 | 0.0 | 0.00 | 0.00 | 0.00 | 81 | 1015.2 |
| 20260508084523 | 47 | 270 | 0.0 | 0.0 | 0.00 | 0.00 | 0.00 | 81 | 1015.1 |
| 20260508084013 | 47 | 270 | 0.0 | 0.0 | 0.00 | 0.00 | 0.00 | 80 | 1015.1 |
| 20260508083509 | 47 | 270 | 0.0 | 0.0 | 0.00 | 0.00 | 0.00 | 80 | 1015.1 |
| 20260508083028 | 47 | 270 | 0.0 | 0.0 | 0.00 | 0.00 | 0.00 | 79 | 1015.2 |
| 20260508081515 | 47 | 270 | 0.0 | 0.0 | 0.00 | 0.00 | 0.00 | 79 | 1015.3 |
| 20260508080020 | 48 | 270 | 0.0 | 1.0 | 0.00 | 0.00 | 0.00 | 77 | 1015.7 |
| 20260508075507 | 49 | 270 | 0.0 | 1.0 | 0.00 | 0.00 | 0.00 | 76 | 1015.7 |
| 20260508075014 | 49 | 270 | 0.0 | 0.0 | 0.00 | 0.00 | 0.00 | 76 | 1015.9 |
| 20260508074522 | 49 | 270 | 0.0 | 0.0 | 0.00 | 0.00 | 0.00 | 75 | 1016.0 |
| 20260508074009 | 49 | 270 | 0.0 | 0.0 | 0.00 | 0.00 | 0.00 | 75 | 1016.0 |
| 20260508073508 | 50 | 270 | 0.0 | 0.0 | 0.00 | 0.00 | 0.00 | 74 | 1016.1 |
| 20260508073028 | 50 | 270 | 0.0 | 0.0 | 0.00 | 0.00 | 0.00 | 74 | 1016.2 |
| 20260508072510 | 50 | 270 | 0.0 | 1.0 | 0.00 | 0.00 | 0.00 | 74 | 1016.3 |
| 20260508072011 | 50 | 270 | 0.0 | 2.0 | 0.00 | 0.00 | 0.00 | 74 | 1016.3 |
| 20260508071528 | 50 | 270 | 0.0 | 2.0 | 0.00 | 0.00 | 0.00 | 74 | 1016.4 |
| 20260508071008 | 50 | 270 | 0.0 | 2.0 | 0.00 | 0.00 | 0.00 | 74 | 1016.3 |
| 20260508065007 | 51 | 270 | 0.0 | 2.0 | 0.00 | 0.00 | 0.00 | 71 | 1016.3 |
| 20260508064006 | 52 | 270 | 0.0 | 2.0 | 0.00 | 0.00 | 0.00 | 70 | 1016.2 |
| 20260508063510 | 52 | 270 | 0.0 | 2.0 | 0.00 | 0.00 | 0.00 | 70 | 1016.1 |
| 20260508063025 | 52 | 270 | 0.0 | 1.0 | 0.00 | 0.00 | 0.00 | 70 | 1016.1 |
| 20260508062510 | 52 | 270 | 0.0 | 3.0 | 0.00 | 0.00 | 0.00 | 70 | 1016.0 |
| 20260508062010 | 52 | 270 | 0.0 | 3.0 | 0.00 | 0.00 | 0.00 | 70 | 1016.0 |
| 20260508061524 | 52 | 270 | 0.0 | 3.0 | 0.00 | 0.00 | 0.00 | 71 | 1016.1 |
| 20260508061016 | 52 | 270 | 0.0 | 4.0 | 0.00 | 0.00 | 0.00 | 71 | 1016.1 |
| 20260508060509 | 52 | 270 | 0.0 | 4.0 | 0.00 | 0.00 | 0.00 | 71 | 1016.1 |
| 20260508060027 | 52 | 270 | 0.0 | 2.0 | 0.00 | 0.00 | 0.00 | 73 | 1016.0 |
| 20260508055009 | 52 | 270 | 0.0 | 0.0 | 0.00 | 0.00 | 0.00 | 71 | 1015.9 |
| 20260508054519 | 52 | 270 | 0.0 | 1.0 | 0.00 | 0.00 | 0.00 | 71 | 1016.0 |
| 20260508054008 | 53 | 270 | 0.0 | 1.0 | 0.00 | 0.00 | 0.00 | 72 | 1016.1 |
| 20260508052510 | 53 | 270 | 0.0 | 2.0 | 0.00 | 0.00 | 0.00 | 72 | 1016.1 |
| 20260508052011 | 53 | 270 | 0.0 | 2.0 | 0.00 | 0.00 | 0.00 | 71 | 1016.0 |
| 20260508051523 | 53 | 270 | 0.0 | 5.0 | 0.00 | 0.00 | 0.00 | 71 | 1016.0 |
| 20260508051010 | 53 | 270 | 0.0 | 5.0 | 0.00 | 0.00 | 0.00 | 72 | 1016.1 |
| 20260508050511 | 53 | 270 | 2.0 | 5.0 | 0.00 | 0.00 | 0.00 | 73 | 1016.2 |
| 20260508050027 | 53 | 270 | 1.0 | 4.0 | 0.00 | 0.00 | 0.00 | 71 | 1015.6 |
| 20260508045509 | 53 | 270 | 0.0 | 4.0 | 0.00 | 0.00 | 0.00 | 70 | 1014.9 |
| 20260508045008 | 54 | 270 | 2.0 | 4.0 | 0.00 | 0.00 | 0.00 | 70 | 1014.7 |
| 20260508044527 | 54 | 270 | 0.0 | 4.0 | 0.00 | 0.00 | 0.00 | 70 | 1014.7 |
| 20260508044010 | 54 | 270 | 0.0 | 4.0 | 0.00 | 0.00 | 0.00 | 69 | 1014.8 |
| 20260508043020 | 54 | 270 | 0.0 | 5.0 | 0.00 | 0.00 | 0.00 | 67 | 1014.7 |
| 20260508041524 | 56 | 270 | 0.0 | 0.0 | 0.00 | 0.00 | 0.00 | 65 | 1014.5 |
| 20260508041011 | 56 | 270 | 0.0 | 0.0 | 0.00 | 0.00 | 0.00 | 65 | 1014.6 |
| 20260508040512 | 56 | 270 | 0.0 | 4.0 | 0.00 | 0.00 | 0.00 | 65 | 1014.5 |
| 20260508040034 | 56 | 270 | 0.0 | 4.0 | 0.00 | 0.00 | 0.00 | 63 | 1014.5 |
| 20260508035507 | 57 | 270 | 0.0 | 3.0 | 0.00 | 0.00 | 0.00 | 64 | 1014.5 |
| 20260508035011 | 57 | 270 | 0.0 | 5.0 | 0.00 | 0.00 | 0.00 | 60 | 1014.8 |
| 20260508034529 | 58 | 270 | 1.0 | 10.0 | 0.00 | 0.00 | 0.00 | 55 | 1015.2 |
| 20260508034012 | 57 | 270 | 5.0 | 16.0 | 0.00 | 0.00 | 0.00 | 54 | 1015.1 |
| 20260508033512 | 57 | 270 | 7.0 | 16.0 | 0.00 | 0.00 | 0.00 | 53 | 1014.8 |
| 20260508032008 | 55 | 270 | 0.0 | 3.0 | 0.00 | 0.00 | 0.00 | 60 | 1014.3 |
| 20260508031528 | 55 | 270 | 0.0 | 2.0 | 0.00 | 0.00 | 0.00 | 61 | 1014.3 |
| 20260508030023 | 56 | 270 | 0.0 | 3.0 | 0.00 | 0.00 | 0.00 | 62 | 1014.1 |
| 20260508025511 | 56 | 270 | 0.0 | 4.0 | 0.00 | 0.00 | 0.00 | 61 | 1013.9 |
| 20260508025012 | 56 | 270 | 1.0 | 6.0 | 0.00 | 0.00 | 0.00 | 61 | 1013.7 |
| 20260508024540 | 56 | 270 | 1.0 | 8.0 | 0.00 | 0.00 | 0.00 | 61 | 1013.6 |
| 20260508024008 | 56 | 270 | 2.0 | 10.0 | 0.00 | 0.00 | 0.00 | 60 | 1013.6 |
| 20260508023511 | 57 | 270 | 3.0 | 12.0 | 0.00 | 0.00 | 0.00 | 58 | 1013.6 |
| 20260508023029 | 58 | 270 | 3.0 | 12.0 | 0.00 | 0.00 | 0.00 | 56 | 1013.6 |
| 20260508022508 | 59 | 270 | 3.0 | 17.0 | 0.00 | 0.00 | 0.00 | 52 | 1013.6 |
| 20260508022012 | 59 | 270 | 6.0 | 17.0 | 0.00 | 0.00 | 0.00 | 50 | 1013.5 |
| 20260508021010 | 60 | 281 | 1.0 | 7.0 | 0.00 | 0.00 | 0.00 | 46 | 1013.3 |
| 20260508020022 | 61 | 270 | 1.0 | 9.0 | 0.00 | 0.00 | 0.00 | 44 | 1013.2 |
| 20260508015509 | 61 | 270 | 3.0 | 9.0 | 0.00 | 0.00 | 0.00 | 44 | 1013.2 |
| 20260508014541 | 62 | 270 | 1.0 | 6.0 | 0.00 | 0.00 | 0.00 | 44 | 1013.2 |
| 20260508014010 | 62 | 270 | 1.0 | 6.0 | 0.00 | 0.00 | 0.00 | 43 | 1013.2 |
| 20260508013508 | 62 | 270 | 2.0 | 5.0 | 0.00 | 0.00 | 0.00 | 43 | 1013.1 |
| 20260508013027 | 62 | 270 | 2.0 | 5.0 | 0.00 | 0.00 | 0.00 | 43 | 1012.8 |
| 20260508012509 | 63 | 270 | 0.0 | 4.0 | 0.00 | 0.00 | 0.00 | 42 | 1012.7 |
| 20260508012010 | 63 | 279 | 1.0 | 4.0 | 0.00 | 0.00 | 0.00 | 41 | 1012.5 |
| 20260508011525 | 63 | 279 | 1.0 | 4.0 | 0.00 | 0.00 | 0.00 | 41 | 1012.5 |
| 20260508011011 | 63 | 281 | 0.0 | 4.0 | 0.00 | 0.00 | 0.00 | 41 | 1012.3 |
| 20260508010511 | 63 | 284 | 1.0 | 4.0 | 0.00 | 0.00 | 0.00 | 40 | 1012.3 |
| 20260508003050 | 61 | 270 | 1.0 | 14.0 | 0.00 | 0.00 | 0.00 | 44 | 1012.6 |
| 20260508002508 | 61 | 285 | 5.0 | 15.0 | 0.00 | 0.00 | 0.00 | 43 | 1012.8 |
| 20260508002015 | 62 | 270 | 5.0 | 15.0 | 0.00 | 0.00 | 0.00 | 42 | 1012.8 |
| 20260508001525 | 63 | 270 | 3.0 | 12.0 | 0.00 | 0.00 | 0.00 | 41 | 1012.7 |
| 20260508001010 | 63 | 270 | 4.0 | 12.0 | 0.00 | 0.00 | 0.00 | 39 | 1012.7 |
| 20260508000513 | 63 | 279 | 4.0 | 19.0 | 0.00 | 0.00 | 0.00 | 40 | 1012.5 |
| 20260508000026 | 64 | 279 | 4.0 | 19.0 | 0.00 | 0.00 | 0.00 | 40 | 1012.6 |
| 20260507235512 | 65 | 270 | 8.0 | 16.0 | 0.00 | 0.00 | 0.00 | 38 | 1012.5 |
| 20260507235010 | 66 | 282 | 5.0 | 15.0 | 0.00 | 0.00 | 0.00 | 36 | 1012.4 |
| 20260507234520 | 66 | 287 | 3.0 | 9.0 | 0.00 | 0.00 | 0.00 | 34 | 1012.4 |
| 20260507234010 | 66 | 282 | 3.0 | 12.0 | 0.00 | 0.00 | 0.00 | 33 | 1012.2 |
| 20260507233510 | 67 | 279 | 5.0 | 12.0 | 0.00 | 0.00 | 0.00 | 32 | 1012.3 |
| 20260507233032 | 67 | 275 | 3.0 | 13.0 | 0.00 | 0.00 | 0.00 | 32 | 1012.2 |
| 20260507232516 | 67 | 275 | 2.0 | 13.0 | 0.00 | 0.00 | 0.00 | 30 | 1012.1 |
| 20260507232009 | 68 | 287 | 2.0 | 9.0 | 0.00 | 0.00 | 0.00 | 30 | 1012.1 |
| 20260507231523 | 68 | 275 | 3.0 | 11.0 | 0.00 | 0.00 | 0.00 | 30 | 1012.1 |
| 20260507231016 | 68 | 279 | 4.0 | 11.0 | 0.00 | 0.00 | 0.00 | 29 | 1012.1 |
| 20260507230510 | 68 | 279 | 1.0 | 12.0 | 0.00 | 0.00 | 0.00 | 29 | 1012.0 |
| 20260507230016 | 68 | 279 | 2.0 | 12.0 | 0.00 | 0.00 | 0.00 | 28 | 1012.0 |
| 20260507225512 | 69 | 279 | 3.0 | 9.0 | 0.00 | 0.00 | 0.00 | 27 | 1012.0 |
| 20260507225008 | 69 | 279 | 1.0 | 10.0 | 0.00 | 0.00 | 0.00 | 28 | 1011.9 |
| 20260507224518 | 69 | 279 | 3.0 | 10.0 | 0.00 | 0.00 | 0.00 | 27 | 1012.0 |
| 20260507224007 | 69 | 279 | 3.0 | 10.0 | 0.00 | 0.00 | 0.00 | 25 | 1011.9 |
| 20260507223511 | 70 | 287 | 1.0 | 10.0 | 0.00 | 0.00 | 0.00 | 26 | 1011.9 |
| 20260507223026 | 70 | 280 | 3.0 | 10.0 | 0.00 | 0.00 | 0.00 | 25 | 1011.9 |
| 20260507222511 | 70 | 279 | 1.0 | 9.0 | 0.00 | 0.00 | 0.00 | 25 | 1011.9 |
| 20260507222011 | 71 | 279 | 4.0 | 9.0 | 0.00 | 0.00 | 0.00 | 24 | 1012.0 |
| 20260507221528 | 72 | 270 | 3.0 | 11.0 | 0.00 | 0.00 | 0.00 | 25 | 1012.0 |
| 20260507221014 | 72 | 257 | 5.0 | 11.0 | 0.00 | 0.00 | 0.00 | 24 | 1012.0 |
| 20260507220513 | 72 | 359 | 6.0 | 11.0 | 0.00 | 0.00 | 0.00 | 24 | 1012.0 |